Weather History for St. Augustine, FL

Change the Weather History Date:

Sunday, December 29, 2013

  Actual Average Record
Temperature  
Mean Temperature 68 °F -  
Max Temperature 75 °F 61 °F 80 °F (1982)
Min Temperature 60 °F 44 °F 30 °F (2010)
Cooling Degree Days 4    
Growing Degree Days 18 (Base 50)    
Moisture  
Dew Point 67 °F    
Average Humidity 89    
Maximum Humidity 97    
Minimum Humidity 79    
Precipitation  
Precipitation 0.26 in - - ()
Sea Level Pressure  
Sea Level Pressure 29.96 in    
Wind  
Wind Speed 10 mph (SW)    
Max Wind Speed 14 mph    
Max Gust Speed 21 mph    
Visibility 9 miles    
Events Rain    
Averages and records for this station are not official NWS values.
T = Trace of Precipitation, MM = Missing Value Source: NWS Daily Summary

Daily Weather History Graph

Daily Weather History Graph

Search for Another Location

Airport:

Trip Planner

Search our weather history database for the weather conditions in past years. The results will help you decide how hot, cold, wet, or windy it might be!

Date:

Astronomy

Dec. 29, 2013 Rise Set
Actual Time 7:20 AM EST 5:34 PM EST
Civil Twilight 6:54 AM EST 6:01 PM EST
Nautical Twilight 6:24 AM EST 6:31 PM EST
Astronomical Twilight 5:55 AM EST 7:00 PM EST
Moon 4:08 AM EST (12/29) 3:06 PM EST (12/29)
Length of Visible Light 11h 07m
Length of Day
10h 14m
Waning Crescent, 11% of the Moon is Illuminated
Dec 29
Waning Crescent
Jan 1
New
Jan 7
First Quarter
Jan 15
Full
Jan 24
Last Quarter

Hourly Weather History & Observations

Time (EST) Temp. Dew Point Humidity Pressure Visibility Wind Dir Wind Speed Gust Speed Precip Events Conditions
12:58 AM 70.0 °F 66.0 °F 87% 30.01 in 10.0 mi SSE 13.8 mph 20.7 mph N/A   Clear
1:58 AM 70.0 °F 66.0 °F 87% 29.99 in 10.0 mi South 12.7 mph - N/A   Clear
2:58 AM 71.1 °F 66.9 °F 87% 29.96 in 10.0 mi SSE 12.7 mph - N/A   Mostly Cloudy
3:58 AM 71.1 °F 66.9 °F 87% 29.96 in 10.0 mi South 11.5 mph - N/A   Partly Cloudy
4:58 AM 70.0 °F 66.9 °F 90% 29.95 in 10.0 mi South 8.1 mph - N/A   Partly Cloudy
5:19 AM 71.6 °F 66.2 °F 83% 29.95 in 10.0 mi South 5.8 mph - N/A   Mostly Cloudy
5:58 AM 72.0 °F 68.0 °F 87% 29.95 in 10.0 mi South 11.5 mph - N/A   Overcast
6:29 AM 71.6 °F 68.0 °F 88% 29.95 in 10.0 mi South 12.7 mph - N/A   Overcast
6:58 AM 72.0 °F 68.0 °F 87% 29.96 in 10.0 mi South 11.5 mph - N/A   Mostly Cloudy
7:58 AM 72.0 °F 69.1 °F 91% 29.97 in 10.0 mi South 9.2 mph - N/A   Mostly Cloudy
8:26 AM 73.4 °F 69.8 °F 88% 29.96 in 10.0 mi South 10.4 mph - N/A   Mostly Cloudy
8:58 AM 73.0 °F 69.1 °F 87% 29.98 in 10.0 mi South 11.5 mph - N/A   Mostly Cloudy
9:34 AM 73.4 °F 69.8 °F 88% 30.00 in 10.0 mi South 6.9 mph - N/A   Mostly Cloudy
9:43 AM 73.4 °F 69.8 °F 88% 29.99 in 10.0 mi SSW 9.2 mph 16.1 mph N/A   Mostly Cloudy
9:49 AM 73.4 °F 69.8 °F 88% 29.99 in 10.0 mi South 11.5 mph - N/A   Mostly Cloudy
9:58 AM 73.9 °F 70.0 °F 87% 30.00 in 10.0 mi SSW 11.5 mph - N/A   Mostly Cloudy
10:03 AM 73.4 °F 69.8 °F 88% 30.00 in 10.0 mi SSW 8.1 mph - N/A   Overcast
10:29 AM 73.4 °F 69.8 °F 88% 29.99 in 10.0 mi SSW 9.2 mph 17.3 mph 0.00 in Rain Light Rain
10:39 AM 73.4 °F 69.8 °F 88% 29.99 in 4.0 mi SW 8.1 mph 17.3 mph 0.00 in Rain Light Rain
10:58 AM 71.1 °F 68.0 °F 90% 30.00 in 4.0 mi SW 8.1 mph - 0.04 in Rain Light Rain
11:05 AM 71.6 °F 68.0 °F 88% 30.00 in 2.0 mi WSW 8.1 mph - 0.10 in Rain Heavy Rain
11:58 AM 71.1 °F 69.1 °F 93% 29.96 in 2.0 mi West 8.1 mph - 0.19 in Rain Light Rain
12:02 PM 71.6 °F 69.8 °F 94% 29.96 in 10.0 mi West 5.8 mph - 0.00 in Rain Light Rain
12:41 PM 71.6 °F 69.8 °F 94% 29.95 in 10.0 mi WSW 5.8 mph - 0.00 in   Overcast
12:58 PM 72.0 °F 68.0 °F 87% 29.94 in 10.0 mi WSW 6.9 mph - 0.00 in   Overcast
1:03 PM 71.6 °F 69.8 °F 94% 29.93 in 10.0 mi WSW 5.8 mph - N/A   Overcast
1:37 PM 73.4 °F 69.8 °F 88% 29.91 in 7.0 mi WSW 8.1 mph - N/A   Overcast
1:58 PM 75.0 °F 69.1 °F 82% 29.91 in 7.0 mi WSW 12.7 mph - N/A   Overcast
2:58 PM 73.9 °F 66.9 °F 79% 29.91 in 7.0 mi West 9.2 mph - N/A   Overcast
3:58 PM 72.0 °F 66.9 °F 84% 29.91 in 7.0 mi West 8.1 mph - N/A   Overcast
4:02 PM 71.6 °F 66.2 °F 83% 29.91 in 10.0 mi West 8.1 mph - N/A   Overcast
4:10 PM 71.6 °F 66.2 °F 83% 29.91 in 10.0 mi WNW 9.2 mph - N/A   Overcast
4:20 PM 71.6 °F 66.2 °F 83% 29.91 in 10.0 mi WNW 8.1 mph - N/A   Overcast
4:50 PM 69.8 °F 66.2 °F 88% 29.92 in 3.0 mi WNW 6.9 mph - 0.00 in Rain Light Rain
4:58 PM 69.1 °F 64.9 °F 87% 29.93 in 3.0 mi WNW 5.8 mph - 0.00 in Rain Light Rain
5:50 PM 66.2 °F 64.4 °F 94% 29.94 in 10.0 mi SW 4.6 mph - 0.02 in Rain Light Rain
5:58 PM 66.9 °F 64.9 °F 93% 29.94 in 10.0 mi South 4.6 mph - 0.02 in Rain Light Rain
6:58 PM 66.9 °F 64.9 °F 93% 29.95 in 10.0 mi SW 3.5 mph - 0.01 in   Mostly Cloudy
7:58 PM 66.0 °F 64.9 °F 96% 29.97 in 10.0 mi West 4.6 mph - N/A   Scattered Clouds
8:58 PM 64.9 °F 64.0 °F 97% 29.99 in 10.0 mi West 5.8 mph - N/A   Scattered Clouds
9:58 PM 64.0 °F 62.1 °F 93% 30.00 in 10.0 mi WNW 4.6 mph - N/A   Clear
10:58 PM 62.1 °F 60.1 °F 93% 30.01 in 10.0 mi West 5.8 mph - N/A   Clear
11:58 PM 60.1 °F 59.0 °F 96% 30.02 in 10.0 mi WNW 4.6 mph - N/A   Clear